[[{"header":{"parameterUnit":"m.s-1","parameterCategory":2,"la1":30.2991,"la2":30.254,"lo1":-89.0895,"lo2":-89.0444,"dy":0.0017,"dx":0.0017,"nx":28,"ny":28,"refTime":"2024-06-27T21:00:00:Z","depth":"0","parameterNumber":2,"parameterNumberName":"U-component_of_CURRENTS"},"data":[0,0,0,0,0,0,0,0,0,0,0,0,0,0,0,0,0,0,0,0,0,0,0,0,0,0,0,0,0,0,0,0,0,0,0,0,0,0,0,0,0,0,0,0,0,0,0,0,0,0,0,0,0,0,0,0,0,0,0.2789,0.2789,0,0.2788,0.2787,0.2787,0.2745,0.2745,0.2744,0.2744,0.2781,0.2782,0.2784,0,0,0,0,0,0,0,0,0,0,0,0,0,0.2742,0.2743,0.2789,0.2789,0.279,0.2788,0.2787,0.2787,0.2745,0.2745,0.2744,0.2743,0.278,0.2782,0.2784,0,0,0,0,0,0,0,0,0,0,0,0,0,0.2749,0.2743,0.2789,0.2773,0.2772,0.2788,0.2787,0.2787,0.2746,0.2745,0.2744,0.2743,0.2779,0.2782,0.2784,0.2815,0,0,0.2791,0.2792,0,0,0,0,0,0,0,0,0.2748,0.275,0.2775,0.2774,0.2773,0.2771,0.2785,0.28,0.2746,0.275,0.2744,0.2743,0.2785,0.2787,0.278,0.2816,0.2818,0.2791,0.2792,0.2793,0.2794,0,0,0,0,0,0,0,0.2748,0.2749,0.2783,0.2776,0.2775,0.2762,0.2762,0.2787,0.2769,0.2749,0.2748,0.2757,0.2784,0.2778,0.2781,0.2819,0.2791,0.2793,0.2794,0.2795,0.2979,0.2982,0,0,0,0,0,0,0.2761,0.2749,0.2783,0.2783,0.2765,0.2764,0.2763,0.2768,0.2767,0.2768,0.2758,0.2755,0.2774,0.2778,0.2782,0.2877,0.2793,0.2795,0.2797,0.2975,0.2979,0.2983,0,0,0,0,0,0,0.276,0.2764,0.2783,0.2771,0.2773,0.2767,0.2772,0.2768,0.2768,0.2774,0.2774,0.2762,0.2774,0.2779,0.283,0.2876,0.2796,0.2799,0.2971,0.2977,0.2981,0.303,0,0,0,0,0,0,0.2759,0.2763,0.2772,0.2772,0.2774,0.2802,0.2773,0.2769,0.2778,0.2774,0.2779,0.278,0.2774,0.2827,0.2833,0.2877,0.28,0.2967,0.2973,0.298,0.3024,0.3036,0.3047,0,0,0,0,0,0.2757,0.2772,0.2772,0.2777,0.2786,0.2803,0.2803,0.2792,0.2779,0.2786,0.2803,0.278,0.2874,0.2832,0.2837,0.2884,0.2963,0.2972,0.2979,0.3019,0.3034,0.3046,0,0,0,0,0,0,0.2764,0.277,0.277,0.2789,0.2802,0.2799,0.2804,0.2802,0.2817,0.2815,0.2815,0.2819,0.2887,0.2889,0.2843,0.2963,0.292,0.2929,0.2948,0.2963,0.2974,0.2932,0.2802,0,0,0,0,0,0.2772,0.2778,0.2791,0.2809,0.2813,0.2812,0.2818,0.2814,0.2829,0.2831,0.2842,0.2873,0.2925,0.2943,0.2979,0.3035,0.3053,0.3077,0.3089,0.3098,0.3074,0.3168,0.3185,0.3009,0.3009,0.3009,0,0,0.2784,0.2787,0.2793,0.281,0.2811,0.2825,0.2811,0.2825,0.2845,0.2838,0.2871,0.2911,0.2952,0.3019,0.305,0.3023,0.3166,0.3108,0.3115,0.3085,0.3178,0.3194,0.3209,0.3015,0.3014,0.3013,0,0,0.28,0.2809,0.2814,0.2825,0.2838,0.2843,0.2853,0.2863,0.2871,0.2916,0.2936,0.2998,0.3052,0.3095,0.3125,0.3225,0.3227,0.3255,0.3268,0.3362,0.3375,0.3388,0.3454,0.3472,0.3255,0.3255,0.3255,0,0.2809,0.2821,0.2823,0.2831,0.2844,0.2854,0.2869,0.2887,0.2918,0.2941,0.2934,0.3052,0.3085,0.3182,0.3218,0.3246,0.3291,0.3205,0.3372,0.3385,0.3397,0.3461,0.348,0.3258,0.3258,0.3257,0.3257,0,0.2829,0.2838,0.2845,0.2855,0.2873,0.289,0.2917,0.2944,0.2961,0.2983,0.3074,0.3127,0.319,0.3238,0.325,0.3368,0.3373,0.3378,0.3324,0.3416,0.348,0.3499,0.3263,0.3262,0.3261,0.326,0,0,0.2842,0.2853,0.2854,0.2856,0.2886,0.2898,0.2945,0.299,0.3019,0.3071,0.3123,0.3228,0.3249,0.3286,0.3335,0.341,0.3546,0.3425,0.3428,0.3465,0.3746,0.3761,0.3782,0.3587,0.359,0.3593,0.3763,0,0.2853,0.2861,0.2874,0.2896,0.2902,0.2932,0.2972,0.3018,0.3058,0.3114,0.3191,0.3263,0.3274,0.3319,0.3399,0.3513,0.3594,0.3497,0.3671,0.3675,0.3656,0.3804,0.3692,0.3836,0.3781,0.3784,0.3787,0,0.2865,0.2868,0.288,0.2903,0.2909,0.2929,0.2986,0.3023,0.3109,0.3144,0.322,0.3277,0.3402,0.3396,0.3605,0.3548,0.3642,0.3719,0.3728,0.3724,0.3724,0.3735,0.3871,0.3669,0.3815,0.3813,0.3811,0,0.2854,0.2873,0.2877,0.2885,0.2917,0.2935,0.2961,0.3031,0.3067,0.3166,0.3206,0.3342,0.3417,0.3561,0.37,0.3677,0.3919,0.3912,0.401,0.4011,0.3936,0.3926,0.3868,0.406,0.4059,0.4059,0.4058,0,0.2852,0.2857,0.2866,0.2866,0.2884,0.2915,0.2948,0.2994,0.3068,0.3116,0.3214,0.3289,0.3465,0.3611,0.3734,0.3932,0.3956,0.4034,0.4072,0.3955,0.3945,0.378,0.3668,0.4065,0.4064,0.4063,0.4062,0,0.283,0.2838,0.284,0.2864,0.287,0.288,0.2921,0.2947,0.3021,0.3091,0.313,0.3285,0.349,0.3656,0.39,0.3978,0.4049,0.4218,0.4054,0.4071,0.3976,0.3872,0.3805,0.3726,0.4376,0.4378,0.4379,0,0.281,0.2807,0.282,0.2817,0.2821,0.2838,0.2851,0.2916,0.2946,0.3089,0.3125,0.3332,0.3468,0.3815,0.4028,0.4269,0.4093,0.4272,0.4212,0.3972,0.3886,0.3728,0.3654,0.4141,0.4141,0.414,0.414,0,0.2772,0.2778,0.2778,0.2766,0.2766,0.2779,0.2802,0.282,0.2906,0.2977,0.3104,0.3229,0.3571,0.3768,0.407,0.4218,0.4033,0.4271,0.4071,0.3742,0.3517,0.3458,0.4,0.4135,0.4135,0.4136,0.4136,0.4136,0.2737,0.2725,0.2713,0.2703,0.2699,0.2697,0.268,0.273,0.2774,0.286,0.3037,0.3182,0.3459,0.3896,0.4022,0.4075,0.4055,0.3977,0.3891,0.3767,0.3616,0.4142,0.4288,0.4289,0.4291,0.4292,0.4292,0,0.2669,0.2659,0.2648,0.2615,0.2576,0.2611,0.2621,0.2598,0.2614,0.2763,0.2883,0.3114,0.3322,0.3545,0.3731,0.3657,0.3577,0.3534,0.3233,0.3201,0.3718,0.3628,0.3576,0.3576,0.3577,0.3577,0.3577,0.3577,0.2627,0.2585,0.258,0.249,0.2469,0.24,0.2391,0.239,0.2455,0.2534,0.2631,0.2777,0.2962,0.3107,0.3108,0.3123,0.2874,0.28,0.2761,0.303,0.306,0.309,0.2976,0.2789,0.2788,0.217,0.2164,0.216]},{"header":{"parameterUnit":"m.s-1","parameterCategory":2,"la1":30.2991,"la2":30.254,"lo1":-89.0895,"lo2":-89.0444,"dy":0.0017,"dx":0.0017,"nx":28,"ny":28,"refTime":"2024-06-27T21:00:00:Z","depth":"0","parameterNumber":3,"parameterNumberName":"V-component_of_CURRENTS"},"data":[0,0,0,0,0,0,0,0,0,0,0,0,0,0,0,0,0,0,0,0,0,0,0,0,0,0,0,0,0,0,0,0,0,0,0,0,0,0,0,0,0,0,0,0,0,0,0,0,0,0,0,0,0,0,0,0,0,0,0.0218,0.0218,0,0.0228,0.0228,0.0227,0.0175,0.0174,0.0173,0.0172,0.0096,0.0095,0.0094,0,0,0,0,0,0,0,0,0,0,0,0,0,0.0131,0.0132,0.0218,0.0219,0.0219,0.0228,0.0228,0.0227,0.0175,0.0174,0.0172,0.0171,0.0096,0.0095,0.0094,0,0,0,0,0,0,0,0,0,0,0,0,0,0.0153,0.0133,0.0218,0.0198,0.0196,0.0228,0.0228,0.0227,0.0175,0.0174,0.0172,0.017,0.0097,0.0095,0.0094,0.0117,0,0,0.0089,0.0089,0,0,0,0,0,0,0,0,0.0152,0.0156,0.02,0.0199,0.0198,0.0203,0.0169,0.0188,0.0176,0.0178,0.0171,0.017,0.0128,0.0124,0.0124,0.0113,0.011,0.0089,0.0088,0.0087,0.0087,0,0,0,0,0,0,0,0.015,0.0155,0.0217,0.0201,0.0199,0.018,0.0181,0.0172,0.0157,0.0178,0.0175,0.0184,0.0126,0.0125,0.0121,0.0109,0.0089,0.0088,0.0087,0.0086,0.0105,0.0106,0,0,0,0,0,0,0.0162,0.0154,0.0217,0.0218,0.0176,0.0184,0.0185,0.0199,0.0158,0.0153,0.0186,0.0182,0.0129,0.0123,0.0118,0.0152,0.0087,0.0086,0.0085,0.0104,0.0105,0.0107,0,0,0,0,0,0,0.016,0.0168,0.0216,0.0189,0.0194,0.0188,0.0203,0.02,0.0198,0.0167,0.0158,0.0188,0.0127,0.0121,0.0122,0.0148,0.0085,0.0084,0.0102,0.0104,0.0106,0.0213,0,0,0,0,0,0,0.0158,0.0167,0.018,0.019,0.0197,0.024,0.0205,0.0201,0.0209,0.0204,0.0166,0.0157,0.0125,0.0125,0.012,0.0145,0.0083,0.01,0.0103,0.0105,0.0208,0.0219,0.0228,0,0,0,0,0,0.0155,0.0177,0.0181,0.0188,0.0215,0.0241,0.0243,0.0228,0.0211,0.0218,0.0199,0.0159,0.0138,0.0125,0.012,0.0144,0.0099,0.0102,0.0105,0.0204,0.0217,0.0228,0,0,0,0,0,0,0.0135,0.0175,0.0178,0.0208,0.0228,0.0234,0.0241,0.0238,0.023,0.022,0.0182,0.0174,0.0182,0.0153,0.014,0.0157,0.011,0.0112,0.0186,0.0198,0.0208,0.021,0.0082,0,0,0,0,0,0.0144,0.0176,0.0202,0.0228,0.0238,0.0243,0.0252,0.0248,0.0246,0.024,0.0224,0.0202,0.0194,0.0187,0.0172,0.0188,0.015,0.0198,0.0208,0.0217,0.0215,0.0197,0.0205,0.0117,0.0117,0.0117,0,0,0.0143,0.0171,0.0187,0.0227,0.0236,0.0267,0.0242,0.0262,0.0287,0.0235,0.0257,0.0237,0.0206,0.0222,0.0223,0.0199,0.0223,0.0221,0.0229,0.0221,0.0201,0.0209,0.0217,0.0119,0.0119,0.0119,0,0,0.0161,0.0183,0.0214,0.024,0.0272,0.0283,0.0294,0.0312,0.0315,0.0345,0.0311,0.0314,0.0304,0.0292,0.0283,0.0341,0.0277,0.0332,0.0385,0.0369,0.0376,0.0382,0.035,0.0352,0.0337,0.0338,0.0338,0,0.0158,0.0206,0.0225,0.0263,0.0291,0.0296,0.0333,0.0346,0.0365,0.0377,0.0361,0.0362,0.034,0.0357,0.0377,0.0364,0.0334,0.0344,0.0382,0.0387,0.0391,0.0357,0.0357,0.0343,0.0343,0.0342,0.0342,0,0.0199,0.0241,0.0261,0.0318,0.0348,0.0382,0.0412,0.0437,0.0447,0.0459,0.0482,0.0462,0.0457,0.046,0.0437,0.0458,0.0421,0.0398,0.0353,0.0406,0.0367,0.0365,0.0351,0.0349,0.0348,0.0346,0,0,0.0195,0.0275,0.0284,0.0323,0.0384,0.0413,0.0463,0.051,0.0539,0.0555,0.059,0.0591,0.0572,0.0559,0.0533,0.0526,0.0536,0.0479,0.0475,0.0449,0.0486,0.0463,0.0458,0.0518,0.0518,0.0518,0.0449,0,0.0225,0.0301,0.0338,0.0416,0.0459,0.0493,0.0543,0.0583,0.0607,0.0641,0.063,0.0646,0.0612,0.0611,0.0603,0.0556,0.0536,0.0556,0.0435,0.0431,0.0406,0.0458,0.0491,0.0432,0.0447,0.0447,0.0447,0,0.0263,0.0313,0.0387,0.0476,0.0496,0.054,0.0616,0.0661,0.0705,0.0721,0.0733,0.0717,0.0722,0.0678,0.0623,0.0635,0.0565,0.0522,0.0517,0.0454,0.0407,0.038,0.0428,0.0314,0.0444,0.0444,0.0444,0,0.0263,0.0355,0.0414,0.0446,0.0538,0.0574,0.0621,0.068,0.0725,0.0764,0.0794,0.0783,0.0781,0.0715,0.0635,0.0625,0.0559,0.053,0.0437,0.0433,0.0416,0.0411,0.034,0.0471,0.0471,0.0471,0.0471,0,0.0297,0.0348,0.0415,0.0453,0.0525,0.0583,0.0655,0.0701,0.0764,0.0827,0.0825,0.0867,0.0789,0.0747,0.0658,0.0555,0.0572,0.0451,0.0421,0.0455,0.0454,0.0314,0.024,0.0469,0.0469,0.047,0.047,0,0.03,0.0345,0.0419,0.0504,0.053,0.0581,0.068,0.0734,0.0791,0.0871,0.0888,0.0923,0.0889,0.0792,0.0685,0.0584,0.0421,0.0429,0.0468,0.0445,0.0255,0.0186,0.0058,0.0019,0.0323,0.0322,0.0321,0,0.031,0.0346,0.044,0.0482,0.0521,0.0596,0.0656,0.0737,0.0802,0.0916,0.0961,0.096,0.1001,0.0844,0.0667,0.0502,0.039,0.0385,0.0374,0.0255,0.0157,0.0108,0.0082,0.0391,0.039,0.039,0.039,0,0.0328,0.0357,0.0415,0.0493,0.0558,0.0644,0.0733,0.0793,0.0901,0.0993,0.1111,0.1159,0.1029,0.0926,0.0685,0.0551,0.032,0.0376,0.0253,0.0206,0.0149,0.0094,0.0407,0.039,0.039,0.039,0.039,0.039,0.0333,0.0371,0.044,0.0516,0.0594,0.0699,0.0788,0.0902,0.1039,0.1236,0.1244,0.1396,0.1184,0.0896,0.0674,0.0296,0.0285,0.0199,0.0124,0.0085,0.0055,0.0357,0.0307,0.0306,0.0306,0.0306,0.0306,0,0.0335,0.0384,0.0459,0.0564,0.0655,0.0698,0.0851,0.0977,0.1167,0.137,0.1517,0.1544,0.1278,0.0945,0.042,0.0118,0.0022,-0.004,-0.0093,-0.0108,0.0166,0.0178,0.01,0.01,0.01,0.01,0.01,0.01,0.0343,0.04,0.0444,0.0591,0.0676,0.0832,0.0935,0.1142,0.133,0.163,0.1786,0.1864,0.1581,0.0661,0.0035,-0.0114,-0.0306,-0.0358,-0.0459,-0.0271,-0.0254,-0.0238,-0.0242,-0.0407,-0.0408,-0.0666,-0.0669,-0.0671]}],[{"header":{"parameterUnit":"m.s-1","parameterCategory":2,"la1":30.2991,"la2":30.254,"lo1":-89.0895,"lo2":-89.0444,"dy":0.0017,"dx":0.0017,"nx":28,"ny":28,"refTime":"2024-06-27T21:00:00:Z","depth":"2","parameterNumber":2,"parameterNumberName":"U-component_of_CURRENTS"},"data":[0,0,0,0,0,0,0,0,0,0,0,0,0,0,0,0,0,0,0,0,0,0,0,0,0,0,0,0,0,0,0,0,0,0,0,0,0,0,0,0,0,0,0,0,0,0,0,0,0,0,0,0,0,0,0,0,0,0,0.0425,0.0425,0,0.0498,0.0499,0.05,0.0569,0.057,0.057,0.0571,0.067,0.0672,0.0674,0,0,0,0,0,0,0,0,0,0,0,0,0,0.0344,0.0345,0.0425,0.0426,0.0426,0.0498,0.0499,0.05,0.0569,0.057,0.0571,0.0571,0.0669,0.0672,0.0674,0,0,0,0,0,0,0,0,0,0,0,0,0,0.0395,0.0345,0.0425,0.0468,0.0473,0.0498,0.0499,0.05,0.0569,0.057,0.0571,0.0572,0.0669,0.0671,0.0674,0.0671,0,0,0.0683,0.0685,0,0,0,0,0,0,0,0,0.0392,0.0398,0.0461,0.0465,0.047,0.0524,0.0507,0.0558,0.0568,0.0534,0.0571,0.0572,0.0622,0.0629,0.0642,0.0675,0.0679,0.0684,0.0685,0.0687,0.0687,0,0,0,0,0,0,0,0.0389,0.0396,0.0455,0.0462,0.0467,0.0483,0.0492,0.0517,0.0572,0.0537,0.0542,0.0547,0.0625,0.0639,0.0645,0.0681,0.0683,0.0686,0.0688,0.0689,0.0833,0.0835,0,0,0,0,0,0,0.0376,0.0392,0.0453,0.0457,0.0431,0.0484,0.0494,0.0507,0.0572,0.0582,0.0546,0.055,0.0633,0.0641,0.0648,0.0763,0.0687,0.0689,0.0691,0.0831,0.0834,0.0836,0,0,0,0,0,0,0.0374,0.0381,0.045,0.0425,0.0435,0.0484,0.0498,0.0508,0.0566,0.0578,0.059,0.0599,0.0634,0.0644,0.0703,0.0763,0.0691,0.0693,0.0829,0.0832,0.0835,0.0918,0,0,0,0,0,0,0.0371,0.038,0.04,0.0424,0.0435,0.0501,0.0497,0.0508,0.0564,0.0571,0.0627,0.0634,0.0636,0.0699,0.0706,0.0765,0.0696,0.0826,0.083,0.0834,0.0912,0.0923,0.0933,0,0,0,0,0,0.0368,0.0396,0.04,0.0408,0.0457,0.0502,0.0512,0.055,0.0566,0.0605,0.0633,0.0635,0.0729,0.0702,0.0711,0.0772,0.0824,0.0829,0.0833,0.0908,0.0921,0.0932,0,0,0,0,0,0,0.0385,0.0406,0.0412,0.0448,0.0485,0.0515,0.0552,0.0575,0.0628,0.0643,0.0655,0.0665,0.0736,0.0741,0.0712,0.0825,0.078,0.0786,0.0834,0.0846,0.0856,0.0892,0.0698,0,0,0,0,0,0.039,0.0413,0.044,0.0474,0.0494,0.0529,0.0558,0.0586,0.0624,0.0652,0.0691,0.0727,0.0754,0.0791,0.0813,0.0878,0.0908,0.0924,0.0934,0.0943,0.0978,0.1049,0.1069,0.0851,0.0851,0.0851,0,0,0.0404,0.042,0.0434,0.0478,0.0509,0.0555,0.0553,0.0612,0.0662,0.0651,0.0748,0.0762,0.0775,0.0842,0.0877,0.0863,0.1025,0.0949,0.0956,0.0987,0.1056,0.1078,0.1097,0.0854,0.0854,0.0853,0,0,0.0441,0.0462,0.0495,0.053,0.0581,0.06,0.0628,0.0686,0.0729,0.0799,0.0803,0.0861,0.0915,0.0945,0.0958,0.1042,0.1065,0.1053,0.1151,0.1219,0.1238,0.1255,0.1336,0.136,0.1071,0.1071,0.1071,0,0.0459,0.0503,0.0516,0.0565,0.0604,0.0628,0.0688,0.0727,0.0803,0.0855,0.0846,0.0958,0.0965,0.1053,0.1081,0.1069,0.1116,0.11,0.1234,0.1251,0.1267,0.1346,0.1371,0.1076,0.1075,0.1075,0.1074,0,0.0518,0.0565,0.0595,0.0654,0.0701,0.0758,0.0804,0.087,0.0915,0.0963,0.1073,0.1087,0.1163,0.117,0.1151,0.1277,0.1276,0.1226,0.1204,0.1295,0.1371,0.1396,0.1082,0.1081,0.1079,0.1078,0,0,0.0533,0.0616,0.063,0.0676,0.0757,0.08,0.0889,0.0981,0.1061,0.1134,0.1249,0.1298,0.1332,0.135,0.1348,0.1413,0.1554,0.1385,0.1387,0.147,0.1737,0.1644,0.1661,0.1531,0.1536,0.1539,0.175,0,0.0582,0.0667,0.0707,0.0809,0.0865,0.0922,0.1003,0.1093,0.1169,0.1283,0.1334,0.1421,0.139,0.1432,0.1502,0.1537,0.1622,0.1504,0.1635,0.164,0.1548,0.1687,0.1427,0.1584,0.1774,0.1778,0.1781,0,0.064,0.0686,0.0782,0.0893,0.0926,0.0994,0.1137,0.1214,0.1359,0.1424,0.1538,0.1571,0.1698,0.1627,0.1797,0.1729,0.176,0.1778,0.1785,0.1691,0.1592,0.1522,0.1621,0.1821,0.1818,0.1815,0.1812,0,0.0644,0.0752,0.0824,0.0863,0.0982,0.1056,0.1131,0.1275,0.1358,0.1523,0.1606,0.1747,0.183,0.1901,0.1964,0.1893,0.2141,0.203,0.1986,0.198,0.1782,0.175,0.2157,0.2157,0.2157,0.2156,0.2155,0,0.0685,0.0755,0.0833,0.0877,0.0983,0.1076,0.1212,0.1309,0.1462,0.1582,0.1682,0.18,0.1903,0.2039,0.2058,0.214,0.2229,0.2058,0.2044,0.1803,0.1772,0.1978,0.1954,0.2164,0.2162,0.2161,0.2159,0,0.0704,0.0749,0.0838,0.0949,0.099,0.1073,0.1229,0.1318,0.1474,0.1634,0.1687,0.1892,0.2087,0.2193,0.234,0.226,0.2326,0.2322,0.2048,0.1996,0.2092,0.2071,0.2286,0.2285,0.2284,0.2283,0.2283,0,0.0724,0.0766,0.0865,0.09,0.0959,0.1076,0.115,0.131,0.14,0.1681,0.1749,0.2005,0.2125,0.2339,0.224,0.2278,0.2429,0.211,0.1894,0.2149,0.2115,0.2094,0.2074,0.1683,0.1677,0.1673,0.1669,0,0.0751,0.0782,0.0828,0.0889,0.0961,0.1047,0.1168,0.1241,0.144,0.1584,0.1814,0.1934,0.2068,0.2,0.2043,0.2013,0.2069,0.2012,0.2407,0.1665,0.159,0.1551,0.155,0.1628,0.1632,0.1635,0.1638,0.1639,0.0751,0.0774,0.0807,0.0874,0.0939,0.1016,0.1098,0.121,0.1356,0.1543,0.1708,0.1814,0.1723,0.162,0.1632,0.1674,0.1739,0.1698,0.1709,0.1725,0.1592,0.1516,0.1519,0.1523,0.1525,0.1528,0.153,0,0.0732,0.0753,0.079,0.0847,0.0893,0.0976,0.1099,0.1152,0.1298,0.141,0.1546,0.1321,0.1244,0.1355,0.1223,0.1147,0.1081,0.1263,0.1174,0.121,0.1244,0.1085,0.088,0.0879,0.0879,0.0878,0,0,0.0711,0.0714,0.0726,0.0775,0.0852,0.0959,0.1047,0.1115,0.1181,0.1195,0.1217,0.1136,0.1175,0.0939,0.0891,0.0948,0.1097,0.0921,0.1415,0.1342,0.1377,0.1438,0.1227,0,0,0,0,0]},{"header":{"parameterUnit":"m.s-1","parameterCategory":2,"la1":30.2991,"la2":30.254,"lo1":-89.0895,"lo2":-89.0444,"dy":0.0017,"dx":0.0017,"nx":28,"ny":28,"refTime":"2024-06-27T21:00:00:Z","depth":"2","parameterNumber":3,"parameterNumberName":"V-component_of_CURRENTS"},"data":[0,0,0,0,0,0,0,0,0,0,0,0,0,0,0,0,0,0,0,0,0,0,0,0,0,0,0,0,0,0,0,0,0,0,0,0,0,0,0,0,0,0,0,0,0,0,0,0,0,0,0,0,0,0,0,0,0,0,-0.0229,-0.023,0,-0.0291,-0.0291,-0.0292,-0.0406,-0.0408,-0.041,-0.0412,-0.0601,-0.0604,-0.0607,0,0,0,0,0,0,0,0,0,0,0,0,0,-0.0199,-0.0199,-0.0229,-0.023,-0.0231,-0.029,-0.0291,-0.0292,-0.0405,-0.0408,-0.0411,-0.0413,-0.06,-0.0604,-0.0608,0,0,0,0,0,0,0,0,0,0,0,0,0,-0.0232,-0.0199,-0.0229,-0.0294,-0.03,-0.029,-0.0291,-0.0293,-0.0405,-0.0408,-0.0411,-0.0414,-0.0599,-0.0604,-0.0608,-0.0572,0,0,-0.0622,-0.0624,0,0,0,0,0,0,0,0,-0.023,-0.0233,-0.0284,-0.029,-0.0297,-0.0343,-0.035,-0.0392,-0.0404,-0.0366,-0.0412,-0.0416,-0.0524,-0.0535,-0.0538,-0.0581,-0.0589,-0.0622,-0.0625,-0.0627,-0.0628,0,0,0,0,0,0,0,-0.0227,-0.0231,-0.0254,-0.0284,-0.0292,-0.0316,-0.0324,-0.0358,-0.0429,-0.0369,-0.0378,-0.0382,-0.0529,-0.0534,-0.0544,-0.0592,-0.0622,-0.0626,-0.0629,-0.0631,-0.0717,-0.0716,0,0,0,0,0,0,-0.0215,-0.0228,-0.0252,-0.0256,-0.027,-0.0314,-0.0323,-0.0326,-0.0426,-0.0443,-0.038,-0.0388,-0.0524,-0.0539,-0.0551,-0.0579,-0.0627,-0.0631,-0.0634,-0.0717,-0.0716,-0.0716,0,0,0,0,0,0,-0.0214,-0.0217,-0.025,-0.0244,-0.025,-0.0311,-0.0313,-0.0325,-0.0359,-0.0432,-0.0453,-0.0404,-0.0527,-0.0545,-0.0615,-0.0585,-0.0633,-0.0638,-0.0718,-0.0717,-0.0716,-0.0593,0,0,0,0,0,0,-0.0213,-0.0216,-0.0217,-0.0242,-0.0249,-0.0238,-0.031,-0.0324,-0.0355,-0.0367,-0.0459,-0.0479,-0.0531,-0.0608,-0.062,-0.0592,-0.0641,-0.0718,-0.0717,-0.0716,-0.0598,-0.0588,-0.058,0,0,0,0,0,-0.0212,-0.0184,-0.0217,-0.022,-0.0248,-0.0236,-0.0241,-0.0297,-0.0353,-0.0345,-0.0437,-0.0477,-0.061,-0.0611,-0.0625,-0.0598,-0.0719,-0.0718,-0.0717,-0.0602,-0.059,-0.058,0,0,0,0,0,0,-0.0162,-0.0194,-0.023,-0.0214,-0.0228,-0.0256,-0.0255,-0.0298,-0.0358,-0.039,-0.0477,-0.0501,-0.0552,-0.0594,-0.0593,-0.0623,-0.0668,-0.0669,-0.0576,-0.0565,-0.0557,-0.0508,-0.0645,0,0,0,0,0,-0.0152,-0.0146,-0.0178,-0.0162,-0.0174,-0.0221,-0.023,-0.0265,-0.0317,-0.0347,-0.0415,-0.0491,-0.0547,-0.0576,-0.0631,-0.064,-0.0674,-0.0633,-0.0624,-0.0616,-0.0587,-0.064,-0.0633,-0.0713,-0.0713,-0.0713,0,0,-0.0127,-0.0142,-0.014,-0.0152,-0.0176,-0.016,-0.0235,-0.024,-0.0231,-0.0357,-0.0385,-0.047,-0.0549,-0.0573,-0.0596,-0.0608,-0.0607,-0.0614,-0.0607,-0.0582,-0.0638,-0.063,-0.0623,-0.0712,-0.0712,-0.0712,0,0,-0.0058,-0.0091,-0.0069,-0.0074,-0.0101,-0.0119,-0.0123,-0.0164,-0.0196,-0.0224,-0.0324,-0.0391,-0.0463,-0.0508,-0.0543,-0.0514,-0.0571,-0.0537,-0.0437,-0.049,-0.0483,-0.0477,-0.0488,-0.0485,-0.0519,-0.0518,-0.0518,0,-0.0035,-0.001,-0.0054,-0.0031,-0.0026,-0.0099,-0.0066,-0.0086,-0.0144,-0.0157,-0.0222,-0.0343,-0.042,-0.0444,-0.0443,-0.0488,-0.0523,-0.0468,-0.0475,-0.0471,-0.0468,-0.0481,-0.0478,-0.0512,-0.0513,-0.0514,-0.0514,0,0.0051,0.0062,0.0081,0.0082,0.0089,0.0109,0.0075,0.0063,0.0005,-0.0023,-0.0079,-0.0193,-0.0261,-0.0295,-0.0362,-0.0369,-0.0402,-0.0468,-0.0494,-0.0451,-0.0469,-0.0468,-0.0504,-0.0506,-0.0508,-0.0509,0,0,0.0107,0.0134,0.0134,0.0153,0.0145,0.0165,0.0185,0.019,0.0202,0.0124,0.013,0.002,-0.0061,-0.0105,-0.0205,-0.0245,-0.0257,-0.0334,-0.034,-0.0327,-0.0345,-0.0321,-0.0319,-0.0337,-0.0337,-0.0336,-0.0359,0,0.0173,0.025,0.0244,0.0315,0.0343,0.0307,0.0342,0.0336,0.0302,0.0292,0.0181,0.0126,0.0019,-0.0038,-0.0086,-0.0229,-0.0255,-0.0242,-0.0403,-0.0406,-0.0377,-0.0318,-0.032,-0.0337,-0.0359,-0.0359,-0.0359,0,0.0238,0.0284,0.0362,0.0421,0.0429,0.0457,0.049,0.0514,0.0491,0.0461,0.0401,0.0298,0.0221,0.0104,-0.0051,-0.0045,-0.017,-0.0271,-0.0277,-0.0292,-0.0381,-0.0391,-0.0337,-0.036,-0.036,-0.036,-0.0359,0,0.0284,0.036,0.0427,0.0446,0.0501,0.052,0.054,0.0548,0.0574,0.0544,0.0544,0.044,0.0365,0.0208,0.0006,-0.0038,-0.0156,-0.0252,-0.033,-0.0329,-0.0377,-0.038,-0.0345,-0.0345,-0.0345,-0.0345,-0.0345,0,0.0348,0.0393,0.0444,0.0478,0.0554,0.0568,0.063,0.0642,0.0661,0.0706,0.061,0.0618,0.0378,0.0274,0.008,-0.009,-0.0099,-0.0278,-0.0328,-0.0332,-0.0331,-0.04,-0.0406,-0.0346,-0.0346,-0.0345,-0.0345,0,0.0366,0.0403,0.0479,0.055,0.0567,0.061,0.0671,0.0727,0.0737,0.0789,0.0773,0.0735,0.0619,0.0411,0.0174,0.0015,-0.0168,-0.0233,-0.0191,-0.0234,-0.0324,-0.0323,-0.0316,-0.0315,-0.0314,-0.0314,-0.0313,0,0.0386,0.0425,0.0514,0.056,0.0578,0.0639,0.0691,0.0738,0.0804,0.087,0.0908,0.0836,0.0813,0.0542,0.025,-0.0022,-0.0104,-0.0213,-0.03,-0.0268,-0.0318,-0.0319,-0.032,-0.0316,-0.0316,-0.0316,-0.0315,0,0.042,0.0435,0.0501,0.0592,0.0648,0.0736,0.0808,0.088,0.0952,0.1028,0.1133,0.1124,0.0889,0.0621,0.026,0.0078,-0.0168,-0.0213,-0.0202,-0.0312,-0.0268,-0.0317,-0.0318,-0.0312,-0.0313,-0.0313,-0.0313,-0.0313,0.043,0.0473,0.0551,0.0632,0.071,0.0821,0.09,0.1024,0.1163,0.1261,0.1261,0.1193,0.0794,0.0322,0.0111,-0.0084,-0.0107,-0.0279,-0.0281,-0.0283,-0.0268,-0.0224,-0.0255,-0.0255,-0.0255,-0.0255,-0.0255,0,0.0453,0.0493,0.0591,0.0702,0.0798,0.0812,0.0978,0.1094,0.1283,0.129,0.1348,0.0901,0.0614,0.0282,-0.0001,-0.0211,-0.0226,-0.0272,-0.0298,-0.03,-0.0302,-0.0288,-0.0281,-0.0281,-0.0281,-0.0281,0,0,0.0472,0.0544,0.06,0.075,0.0811,0.0928,0.1017,0.1226,0.1285,0.1315,0.1177,0.0915,0.0508,0.0192,-0.0048,-0.0118,-0.0145,-0.0124,-0.0089,-0.009,-0.0089,-0.0298,-0.0278,0,0,0,0,0]}],[{"header":{"parameterUnit":"m.s-1","parameterCategory":2,"la1":30.2991,"la2":30.254,"lo1":-89.0895,"lo2":-89.0444,"dy":0.0017,"dx":0.0017,"nx":28,"ny":28,"refTime":"2024-06-27T21:00:00:Z","depth":"4","parameterNumber":2,"parameterNumberName":"U-component_of_CURRENTS"},"data":[0,0,0,0,0,0,0,0,0,0,0,0,0,0,0,0,0,0,0,0,0,0,0,0,0,0,0,0,0,0,0,0,0,0,0,0,0,0,0,0,0,0,0,0,0,0,0,0,0,0,0,0,0,0,0,0,0,0,0.0141,0.0141,0,0.0124,0.0124,0.0123,0.0093,0.0093,0.0092,0.0092,-0.0015,-0.0017,-0.0019,0,0,0,0,0,0,0,0,0,0,0,0,0,0.0137,0.0137,0.0141,0.0141,0.0141,0.0124,0.0124,0.0123,0.0093,0.0092,0.0092,0.0091,-0.0014,-0.0017,-0.0019,0,0,0,0,0,0,0,0,0,0,0,0,0,0.013,0.0137,0.0141,0.0124,0.0123,0.0124,0.0124,0.0123,0.0093,0.0092,0.0092,0.0091,-0.0013,-0.0016,-0.002,-0.0027,0,0,-0.0031,-0.0032,0,0,0,0,0,0,0,0,0.0131,0.013,0.0127,0.0125,0.0124,0.0111,0.0083,0.0069,0.0093,0.0103,0.0092,0.0091,0.002,0.0014,0.0012,-0.0032,-0.0037,-0.0031,-0.0033,-0.0035,-0.0036,0,0,0,0,0,0,0,0.0131,0.0131,0.0133,0.0127,0.0125,0.0114,0.0112,0.0081,0.0064,0.0102,0.01,0.01,0.0018,0.0016,0.0009,-0.0038,-0.0031,-0.0034,-0.0036,-0.0038,-0.0146,-0.0147,0,0,0,0,0,0,0.0137,0.0131,0.0134,0.0133,0.0127,0.0115,0.0113,0.0115,0.0066,0.0059,0.0101,0.0099,0.0022,0.0013,0.0005,-0.0047,-0.0035,-0.0038,-0.004,-0.0145,-0.0146,-0.0147,0,0,0,0,0,0,0.0137,0.0137,0.0134,0.0132,0.0131,0.0116,0.0118,0.0115,0.01,0.0066,0.0057,0.0088,0.0021,0.001,-0.0034,-0.005,-0.004,-0.0043,-0.0144,-0.0146,-0.0147,-0.0126,0,0,0,0,0,0,0.0137,0.0137,0.0138,0.0133,0.0132,0.0129,0.0119,0.0115,0.0102,0.0099,0.0052,0.0042,0.002,-0.0029,-0.0038,-0.0055,-0.0046,-0.0143,-0.0145,-0.0146,-0.0126,-0.0127,-0.0127,0,0,0,0,0,0.0137,0.0138,0.0139,0.0139,0.0134,0.0129,0.0128,0.0114,0.0102,0.0097,0.0062,0.0043,-0.0044,-0.0032,-0.0043,-0.0061,-0.0143,-0.0145,-0.0146,-0.0126,-0.0126,-0.0127,0,0,0,0,0,0,0.0136,0.0136,0.0136,0.0137,0.0133,0.0124,0.0118,0.0109,0.008,0.0069,0.0035,0.0023,-0.0023,-0.0045,-0.003,-0.0097,-0.0098,-0.0101,-0.0079,-0.008,-0.008,-0.0062,-0.0049,0,0,0,0,0,0.0139,0.014,0.0138,0.0139,0.0136,0.0126,0.0121,0.0111,0.0088,0.0075,0.0041,0.0001,-0.0035,-0.0059,-0.0094,-0.0128,-0.0126,-0.0148,-0.0149,-0.0149,-0.0142,-0.0159,-0.016,-0.0153,-0.0153,-0.0153,0,0,0.0139,0.014,0.0139,0.0139,0.0133,0.0131,0.012,0.0109,0.0098,0.0066,0.0029,-0.0005,-0.0045,-0.0084,-0.0107,-0.0106,-0.0146,-0.0151,-0.0151,-0.0143,-0.0161,-0.0161,-0.0162,-0.0154,-0.0153,-0.0153,0,0,0.0143,0.014,0.0143,0.0138,0.0131,0.0126,0.0121,0.0104,0.0086,0.0054,0.0025,-0.0015,-0.0071,-0.0098,-0.012,-0.0145,-0.0149,-0.0163,-0.0151,-0.0168,-0.0168,-0.0168,-0.0142,-0.014,-0.0162,-0.0162,-0.0162,0,0.0143,0.0151,0.0142,0.0143,0.014,0.0123,0.0123,0.0105,0.0072,0.0056,0.0039,-0.0038,-0.0075,-0.0115,-0.0124,-0.0145,-0.014,-0.0143,-0.0166,-0.0167,-0.0167,-0.0141,-0.0139,-0.0161,-0.0161,-0.0161,-0.0162,0,0.0152,0.0154,0.0153,0.0151,0.0144,0.0139,0.0119,0.0099,0.0073,0.0055,0.0004,-0.0041,-0.0083,-0.0107,-0.0124,-0.0151,-0.0138,-0.0163,-0.0158,-0.0166,-0.0138,-0.0137,-0.016,-0.016,-0.0161,-0.0161,0,0,0.0157,0.0161,0.016,0.0164,0.0147,0.0145,0.0121,0.0103,0.0089,0.0043,0.0022,-0.0043,-0.0065,-0.009,-0.0121,-0.0138,-0.0133,-0.0148,-0.0149,-0.011,-0.0135,-0.0092,-0.0085,-0.0162,-0.0163,-0.0163,-0.0105,0,0.0167,0.0182,0.0174,0.0177,0.0181,0.0157,0.0141,0.0115,0.0085,0.0057,0.0006,-0.0029,-0.0059,-0.0078,-0.0102,-0.0133,-0.0132,-0.0144,-0.0145,-0.0144,-0.0095,-0.0084,-0.0164,-0.0104,-0.0103,-0.0103,-0.0103,0,0.0175,0.0186,0.0198,0.0198,0.0196,0.0189,0.0166,0.0149,0.0104,0.0079,0.0038,0.0003,-0.0032,-0.0059,-0.0094,-0.0099,-0.0108,-0.0126,-0.0125,-0.009,-0.0098,-0.0103,-0.01,-0.01,-0.01,-0.0101,-0.0101,0,0.0188,0.0199,0.0213,0.0211,0.0207,0.0198,0.0188,0.015,0.0139,0.0096,0.0087,0.0034,0.0015,-0.0022,-0.0051,-0.0074,-0.0072,-0.0113,-0.0073,-0.0068,-0.0133,-0.0134,-0.0123,-0.0123,-0.0123,-0.0123,-0.0123,0,0.0195,0.0204,0.0221,0.0224,0.0232,0.0215,0.0207,0.0187,0.0161,0.0152,0.0103,0.0086,0.0021,0.001,-0.0026,-0.0026,-0.0049,-0.0054,-0.0054,-0.0123,-0.0124,-0.013,-0.0131,-0.0121,-0.0121,-0.0122,-0.0122,0,0.019,0.0207,0.0224,0.0233,0.0236,0.0234,0.0229,0.0222,0.0201,0.019,0.0183,0.0138,0.0116,0.0083,0.0039,0.0024,0.0005,0.0015,-0.0009,-0.0013,0.0018,0.0016,0.0057,0.0059,0.0061,0.0062,0.0064,0,0.0186,0.0197,0.0229,0.0244,0.0244,0.0247,0.0245,0.0234,0.0231,0.0216,0.0214,0.0199,0.0167,0.0159,0.0106,0.0086,0.0069,0.0087,0.0007,0.0039,0.0034,0.003,0.0026,0.0066,0.0067,0.0067,0.0067,0,0.0173,0.0188,0.0202,0.0242,0.0253,0.0264,0.0266,0.0267,0.0255,0.026,0.0248,0.0228,0.0217,0.017,0.0183,0.0147,0.0081,0.0104,0.0098,0.0023,0.005,0.0043,0.0037,0.0073,0.0072,0.0072,0.0071,0,0.0156,0.0165,0.0199,0.0225,0.0265,0.0272,0.0262,0.0269,0.027,0.0268,0.0265,0.0234,0.0224,0.0205,0.0195,0.0191,0.0159,0.0144,0.0136,0.0129,0.012,0.0162,0.0234,0,0,0,0,0,0.014,0.0154,0.0182,0.0211,0.0259,0.0269,0.0284,0.027,0.0273,0.0278,0.0276,0.0263,0.0242,0.0217,0.0219,0.0197,0.0148,0.02,0.0124,0.0105,0.0098,0.0076,0,0,0,0,0,0,0.0128,0.0157,0.0172,0.0213,0.0228,0.0254,0.0256,0.024,0.0246,0.0256,0.0242,0.0269,0.024,0.0241,0.0217,0.0215,0.0169,0.0197,0.0198,0.0108,0.0102,0.0097,0.0073,0,0,0,0,0]},{"header":{"parameterUnit":"m.s-1","parameterCategory":2,"la1":30.2991,"la2":30.254,"lo1":-89.0895,"lo2":-89.0444,"dy":0.0017,"dx":0.0017,"nx":28,"ny":28,"refTime":"2024-06-27T21:00:00:Z","depth":"4","parameterNumber":3,"parameterNumberName":"V-component_of_CURRENTS"},"data":[0,0,0,0,0,0,0,0,0,0,0,0,0,0,0,0,0,0,0,0,0,0,0,0,0,0,0,0,0,0,0,0,0,0,0,0,0,0,0,0,0,0,0,0,0,0,0,0,0,0,0,0,0,0,0,0,0,0,-0.0185,-0.0186,0,-0.0227,-0.0227,-0.0227,-0.0206,-0.0205,-0.0204,-0.0203,-0.02,-0.02,-0.0201,0,0,0,0,0,0,0,0,0,0,0,0,0,-0.0076,-0.0078,-0.0185,-0.0186,-0.0186,-0.0227,-0.0227,-0.0228,-0.0206,-0.0205,-0.0204,-0.0203,-0.0199,-0.02,-0.0201,0,0,0,0,0,0,0,0,0,0,0,0,0,-0.012,-0.0079,-0.0185,-0.0181,-0.0181,-0.0226,-0.0227,-0.0228,-0.0207,-0.0205,-0.0203,-0.0202,-0.0199,-0.02,-0.0201,-0.0241,0,0,-0.0205,-0.0206,0,0,0,0,0,0,0,0,-0.0118,-0.0124,-0.0181,-0.0181,-0.0182,-0.021,-0.0187,-0.023,-0.0207,-0.0196,-0.0203,-0.0201,-0.0201,-0.0202,-0.0213,-0.024,-0.024,-0.0206,-0.0206,-0.0207,-0.0207,0,0,0,0,0,0,0,-0.0115,-0.0122,-0.0201,-0.0182,-0.0182,-0.0173,-0.0178,-0.0195,-0.0205,-0.0197,-0.0196,-0.0202,-0.02,-0.0211,-0.0212,-0.024,-0.0206,-0.0207,-0.0207,-0.0208,-0.0256,-0.0257,0,0,0,0,0,0,-0.0114,-0.012,-0.02,-0.0202,-0.0146,-0.0177,-0.0182,-0.0202,-0.0206,-0.0206,-0.0203,-0.0201,-0.021,-0.0211,-0.0212,-0.0226,-0.0207,-0.0208,-0.0209,-0.0256,-0.0256,-0.0257,0,0,0,0,0,0,-0.0112,-0.0121,-0.0198,-0.0161,-0.017,-0.018,-0.0203,-0.0204,-0.0212,-0.0211,-0.021,-0.021,-0.0209,-0.021,-0.0233,-0.0226,-0.0209,-0.021,-0.0255,-0.0256,-0.0257,-0.0274,0,0,0,0,0,0,-0.0109,-0.0121,-0.0141,-0.0162,-0.0172,-0.023,-0.0205,-0.0206,-0.0218,-0.0215,-0.0217,-0.0215,-0.0208,-0.0231,-0.0234,-0.0228,-0.0211,-0.0255,-0.0256,-0.0256,-0.0273,-0.0276,-0.0278,0,0,0,0,0,-0.0105,-0.014,-0.0142,-0.0151,-0.0198,-0.0231,-0.0237,-0.0236,-0.022,-0.0235,-0.0234,-0.0215,-0.0238,-0.0234,-0.0237,-0.0231,-0.0254,-0.0255,-0.0256,-0.0272,-0.0275,-0.0278,0,0,0,0,0,0,-0.0106,-0.0142,-0.0144,-0.0189,-0.021,-0.0228,-0.0246,-0.0242,-0.0256,-0.0249,-0.0238,-0.0238,-0.0252,-0.0247,-0.0243,-0.0247,-0.0236,-0.0238,-0.0247,-0.025,-0.0252,-0.0256,-0.0212,0,0,0,0,0,-0.0117,-0.0152,-0.0176,-0.0214,-0.0224,-0.0235,-0.0249,-0.0249,-0.0261,-0.0265,-0.0261,-0.0258,-0.0262,-0.0261,-0.027,-0.0284,-0.0279,-0.0277,-0.0279,-0.0281,-0.0287,-0.0283,-0.0285,-0.0261,-0.0261,-0.0261,0,0,-0.0128,-0.0153,-0.0173,-0.0216,-0.0231,-0.0255,-0.0239,-0.0266,-0.0282,-0.0264,-0.0283,-0.0275,-0.0272,-0.0282,-0.0285,-0.0274,-0.0286,-0.0283,-0.0284,-0.0289,-0.0284,-0.0286,-0.0288,-0.0261,-0.0261,-0.0261,0,0,-0.0158,-0.0189,-0.0218,-0.024,-0.0267,-0.0278,-0.0285,-0.0302,-0.0306,-0.0327,-0.0311,-0.0309,-0.0314,-0.031,-0.0307,-0.0333,-0.0305,-0.0318,-0.0326,-0.0322,-0.0324,-0.0325,-0.0323,-0.0324,-0.031,-0.031,-0.031,0,-0.0165,-0.0208,-0.0232,-0.0259,-0.0279,-0.0288,-0.0312,-0.033,-0.0348,-0.0353,-0.0334,-0.0335,-0.033,-0.034,-0.0335,-0.0338,-0.0326,-0.0314,-0.0324,-0.0326,-0.0327,-0.0324,-0.0325,-0.0311,-0.0311,-0.0311,-0.0311,0,-0.0205,-0.0241,-0.0261,-0.03,-0.0326,-0.0354,-0.0375,-0.0392,-0.0387,-0.039,-0.0397,-0.0388,-0.0377,-0.037,-0.0357,-0.0357,-0.0343,-0.0334,-0.0316,-0.033,-0.0327,-0.0327,-0.0313,-0.0312,-0.0312,-0.0312,0,0,-0.0219,-0.0275,-0.0283,-0.0301,-0.0347,-0.037,-0.0407,-0.0436,-0.0446,-0.0448,-0.0452,-0.0448,-0.0418,-0.0414,-0.0391,-0.0383,-0.0377,-0.0351,-0.0351,-0.0347,-0.036,-0.036,-0.0361,-0.0357,-0.0357,-0.0358,-0.0354,0,-0.0238,-0.0286,-0.0316,-0.0365,-0.0388,-0.0415,-0.0446,-0.0473,-0.0479,-0.0486,-0.0475,-0.0465,-0.0443,-0.0413,-0.0409,-0.0384,-0.0379,-0.0378,-0.0349,-0.0348,-0.0345,-0.0362,-0.0358,-0.0354,-0.0354,-0.0354,-0.0355,0,-0.0264,-0.0292,-0.0336,-0.0386,-0.0399,-0.0427,-0.0467,-0.0493,-0.0515,-0.0509,-0.05,-0.0482,-0.047,-0.044,-0.0421,-0.0414,-0.0388,-0.0374,-0.0373,-0.0369,-0.035,-0.0337,-0.0356,-0.0356,-0.0356,-0.0356,-0.0355,0,-0.0252,-0.031,-0.0342,-0.0361,-0.0417,-0.0436,-0.046,-0.0492,-0.0507,-0.0506,-0.0498,-0.0494,-0.0466,-0.045,-0.0415,-0.0405,-0.0397,-0.0382,-0.0369,-0.0369,-0.036,-0.0359,-0.0375,-0.0375,-0.0375,-0.0375,-0.0375,0,-0.0261,-0.0295,-0.0334,-0.0354,-0.0383,-0.0422,-0.0448,-0.0466,-0.0487,-0.0484,-0.049,-0.0467,-0.046,-0.0451,-0.0427,-0.0405,-0.0406,-0.0379,-0.0371,-0.0368,-0.0367,-0.0361,-0.0359,-0.0375,-0.0375,-0.0375,-0.0375,0,-0.0255,-0.0284,-0.0324,-0.037,-0.0379,-0.0396,-0.0434,-0.0449,-0.0463,-0.0455,-0.0445,-0.0446,-0.0422,-0.044,-0.0412,-0.041,-0.0396,-0.0386,-0.0392,-0.0382,-0.0367,-0.0367,-0.0374,-0.0374,-0.0374,-0.0374,-0.0374,0,-0.0259,-0.0277,-0.0321,-0.033,-0.0351,-0.0375,-0.0389,-0.0422,-0.0423,-0.0421,-0.0404,-0.0399,-0.0391,-0.039,-0.0389,-0.0394,-0.0384,-0.0388,-0.0376,-0.0378,-0.0368,-0.0368,-0.0367,-0.0374,-0.0374,-0.0374,-0.0374,0,-0.0263,-0.028,-0.0303,-0.031,-0.0326,-0.0352,-0.0361,-0.0354,-0.0368,-0.0391,-0.0366,-0.0369,-0.0359,-0.0365,-0.0388,-0.0376,-0.0397,-0.0388,-0.0388,-0.0376,-0.0378,-0.0369,-0.0368,-0.0374,-0.0374,-0.0374,-0.0374,0,-0.0261,-0.0267,-0.0282,-0.0287,-0.0309,-0.0312,-0.0325,-0.0326,-0.0338,-0.0336,-0.0311,-0.0321,-0.0332,-0.0352,-0.0352,-0.0374,-0.0364,-0.0364,-0.0364,-0.0364,-0.0366,-0.0368,-0.0359,0,0,0,0,0,-0.0248,-0.0243,-0.0254,-0.026,-0.0284,-0.0296,-0.0302,-0.0312,-0.0305,-0.0291,-0.0311,-0.03,-0.0316,-0.0319,-0.034,-0.0333,-0.0358,-0.0356,-0.0355,-0.0375,-0.0375,-0.0378,0,0,0,0,0,0,-0.0236,-0.0242,-0.0242,-0.0238,-0.024,-0.0263,-0.0268,-0.0268,-0.0264,-0.0263,-0.0278,-0.0302,-0.0325,-0.0312,-0.034,-0.0344,-0.0345,-0.0374,-0.0374,-0.0375,-0.0375,-0.0375,-0.0378,0,0,0,0,0]}]]